�������l�o���
Date,Time,MP-1(��Sv/h),MP-2(��Sv/h),MP-3(��Sv/h),MP-4(��Sv/h),MP-5(��Sv/h),MP-6(��Sv/h),MP-7(��Sv/h),MP-8(��Sv/h),����,����(m/s),���J
2024/05/26,00:00,0.511,0.782,0.489,0.973,0.709,0.318,0.554,0.517,��쐼,1.5,��
2024/05/26,00:10,0.511,0.785,0.490,0.971,0.709,0.316,0.554,0.516,��,1.7,��
2024/05/26,00:20,0.513,0.784,0.490,0.972,0.709,0.316,0.555,0.516,��,2.3,��
2024/05/26,00:30,0.512,0.782,0.490,0.972,0.708,0.316,0.554,0.517,��,2.8,��
2024/05/26,00:40,0.512,0.784,0.489,0.969,0.709,0.317,0.553,0.517,��,2.9,��
2024/05/26,00:50,0.511,0.786,0.490,0.972,0.710,0.316,0.554,0.517,��쐼,2.6,��
2024/05/26,01:00,0.513,0.784,0.491,0.972,0.712,0.316,0.557,0.517,��,3.2,��
2024/05/26,01:10,0.510,0.786,0.490,0.972,0.710,0.316,0.553,0.517,��쓌,2.9,��
2024/05/26,01:20,0.511,0.784,0.491,0.970,0.710,0.316,0.555,0.517,��쓌,2.2,��
2024/05/26,01:30,0.511,0.782,0.490,0.970,0.710,0.316,0.554,0.517,��,1.4,��
2024/05/26,01:40,0.509,0.783,0.491,0.973,0.710,0.317,0.554,0.516,��쓌,0.9,��
2024/05/26,01:50,0.512,0.785,0.489,0.972,0.709,0.315,0.554,0.516,��쓌,1.5,��
2024/05/26,02:00,0.512,0.784,0.490,0.973,0.707,0.316,0.554,0.517,��,1.2,��
2024/05/26,02:10,0.510,0.783,0.490,0.971,0.708,0.318,0.554,0.516,��,1.1,��
2024/05/26,02:20,0.510,0.783,0.489,0.973,0.709,0.316,0.555,0.518,��쓌,0.9,��
2024/05/26,02:30,0.510,0.784,0.489,0.972,0.709,0.316,0.555,0.520,��,0.9,��
2024/05/26,02:40,0.512,0.783,0.489,0.972,0.708,0.316,0.553,0.517,��쐼,1.7,��
2024/05/26,02:50,0.510,0.783,0.490,0.971,0.709,0.316,0.555,0.516,�쐼,2.6,��
2024/05/26,03:00,0.510,0.785,0.490,0.974,0.709,0.316,0.555,0.518,��쐼,2.6,��
2024/05/26,03:10,0.510,0.783,0.489,0.971,0.709,0.316,0.553,0.516,��쐼,2.9,��
2024/05/26,03:20,0.511,0.784,0.489,0.970,0.709,0.318,0.555,0.516,��쐼,2.6,��
2024/05/26,03:30,0.510,0.782,0.489,0.971,0.709,0.316,0.554,0.515,��쐼,2.3,��
2024/05/26,03:40,0.510,0.783,0.489,0.970,0.708,0.316,0.555,0.516,��쐼,2.3,��
2024/05/26,03:50,0.511,0.782,0.490,0.973,0.708,0.317,0.555,0.517,��쐼,2.2,��
2024/05/26,04:00,0.511,0.783,0.488,0.972,0.709,0.317,0.554,0.517,�쐼,1.2,��
2024/05/26,04:10,0.511,0.782,0.490,0.972,0.708,0.315,0.553,0.517,��쐼,1.9,��
2024/05/26,04:20,0.510,0.782,0.489,0.968,0.708,0.316,0.555,0.517,��쐼,2.2,��
2024/05/26,04:30,0.509,0.782,0.489,0.971,0.710,0.317,0.554,0.517,��,1.4,��
2024/05/26,04:40,0.510,0.783,0.490,0.971,0.707,0.317,0.555,0.517,��쐼,2.2,��
2024/05/26,04:50,0.512,0.781,0.488,0.970,0.709,0.317,0.555,0.517,��쐼,2.3,��
2024/05/26,05:00,0.512,0.783,0.488,0.969,0.708,0.316,0.555,0.516,��쐼,3.0,��
2024/05/26,05:10,0.510,0.784,0.490,0.969,0.708,0.317,0.556,0.517,��쐼,3.6,��
2024/05/26,05:20,0.510,0.783,0.489,0.970,0.710,0.316,0.556,0.519,��,3.6,��
2024/05/26,05:30,0.512,0.784,0.490,0.970,0.708,0.317,0.555,0.518,��쐼,3.3,��
2024/05/26,05:40,0.511,0.783,0.491,0.970,0.709,0.318,0.556,0.517,��쐼,3.4,��
2024/05/26,05:50,0.512,0.783,0.491,0.971,0.707,0.317,0.557,0.515,��쐼,3.4,��
2024/05/26,06:00,0.510,0.786,0.491,0.971,0.707,0.317,0.557,0.518,��,3.8,��
2024/05/26,06:10,0.510,0.784,0.490,0.973,0.709,0.317,0.556,0.519,��,2.8,��
2024/05/26,06:20,0.513,0.786,0.492,0.970,0.710,0.317,0.556,0.517,��,2.6,��
2024/05/26,06:30,0.511,0.785,0.491,0.970,0.709,0.317,0.554,0.517,��,3.7,��
2024/05/26,06:40,0.512,0.783,0.489,0.972,0.709,0.316,0.556,0.519,��,5.0,��
2024/05/26,06:50,0.514,0.782,0.491,0.971,0.709,0.316,0.557,0.518,��쓌,5.0,��
2024/05/26,07:00,0.513,0.782,0.491,0.971,0.708,0.315,0.556,0.519,��쓌,5.9,��
2024/05/26,07:10,0.513,0.781,0.490,0.972,0.709,0.316,0.555,0.518,��쓌,5.5,��
2024/05/26,07:20,0.513,0.784,0.491,0.972,0.707,0.316,0.556,0.518,��쓌,5.7,��
2024/05/26,07:30,0.510,0.782,0.489,0.971,0.708,0.316,0.556,0.518,��쓌,5.4,��
2024/05/26,07:40,0.511,0.782,0.492,0.972,0.709,0.315,0.556,0.518,��쓌,6.7,��
2024/05/26,07:50,0.510,0.781,0.491,0.972,0.709,0.315,0.555,0.517,��쓌,6.6,��
2024/05/26,08:00,0.509,0.781,0.490,0.971,0.709,0.318,0.556,0.516,��,6.1,��
2024/05/26,08:10,0.508,0.782,0.489,0.974,0.707,0.316,0.555,0.515,��쓌,7.1,��
2024/05/26,08:20,0.509,0.782,0.490,0.970,0.708,0.316,0.555,0.516,��,8.4,��
2024/05/26,08:30,0.510,0.782,0.491,0.973,0.709,0.316,0.556,0.516,��쓌,9.6,��
2024/05/26,08:40,0.510,0.783,0.491,0.972,0.708,0.316,0.556,0.515,��쓌,9.6,��
2024/05/26,08:50,0.510,0.782,0.489,0.973,0.707,0.317,0.554,0.515,��쓌,10.0,��
2024/05/26,09:00,0.511,0.780,0.491,0.974,0.708,0.317,0.554,0.516,��쓌,10.3,��
2024/05/26,09:10,0.510,0.782,0.491,0.972,0.706,0.317,0.554,0.517,��쓌,10.2,��
2024/05/26,09:20,0.513,0.782,0.490,0.972,0.709,0.317,0.554,0.516,��쓌,10.8,��
2024/05/26,09:30,0.512,0.782,0.488,0.973,0.707,0.317,0.553,0.515,��쓌,12.2,��
2024/05/26,09:40,0.511,0.781,0.489,0.974,0.708,0.317,0.554,0.516,��쓌,11.6,��
2024/05/26,09:50,0.512,0.784,0.488,0.973,0.710,0.317,0.553,0.516,��쓌,9.8,��
2024/05/26,10:00,0.510,0.781,0.488,0.970,0.708,0.316,0.554,0.515,��쓌,12.2,��
2024/05/26,10:10,0.512,0.783,0.488,0.973,0.708,0.316,0.555,0.516,��쓌,11.4,��
2024/05/26,10:20,0.511,0.784,0.490,0.972,0.708,0.317,0.555,0.516,��쓌,11.8,��
2024/05/26,10:30,0.511,0.782,0.490,0.974,0.709,0.316,0.553,0.516,��쓌,12.7,��
2024/05/26,10:40,0.511,0.782,0.490,0.974,0.711,0.318,0.554,0.517,��쓌,12.7,��
2024/05/26,10:50,0.510,0.784,0.490,0.975,0.710,0.316,0.553,0.516,��쓌,12.4,��
2024/05/26,11:00,0.510,0.785,0.489,0.973,0.709,0.317,0.552,0.515,��쓌,13.0,��
2024/05/26,11:10,0.512,0.785,0.491,0.972,0.711,0.316,0.554,0.516,��쓌,13.1,��
2024/05/26,11:20,0.512,0.784,0.487,0.972,0.711,0.317,0.554,0.516,��쓌,14.1,��
2024/05/26,11:30,0.513,0.784,0.492,0.970,0.709,0.317,0.555,0.518,��쓌,14.2,��
2024/05/26,11:40,0.511,0.785,0.491,0.970,0.711,0.318,0.554,0.517,��쓌,13.5,��
2024/05/26,11:50,0.513,0.785,0.490,0.972,0.711,0.317,0.553,0.516,��쓌,13.3,��
2024/05/26,12:00,0.513,0.784,0.490,0.972,0.710,0.315,0.553,0.517,��쓌,12.7,��
2024/05/26,12:10,0.511,0.784,0.492,0.969,0.710,0.317,0.553,0.517,��,14.6,��
2024/05/26,12:20,0.514,0.784,0.490,0.973,0.711,0.316,0.553,0.518,��쓌,12.8,��
2024/05/26,12:30,0.512,0.783,0.489,0.973,0.712,0.316,0.553,0.518,��,13.8,��
2024/05/26,12:40,0.513,0.784,0.492,0.971,0.709,0.317,0.553,0.517,��쓌,13.8,��
2024/05/26,12:50,0.513,0.785,0.489,0.972,0.712,0.317,0.553,0.517,��쓌,11.6,��
2024/05/26,13:00,0.513,0.783,0.492,0.971,0.710,0.317,0.553,0.517,��쓌,14.1,��
2024/05/26,13:10,0.512,0.786,0.490,0.970,0.709,0.317,0.554,0.516,��쓌,15.5,��
2024/05/26,13:20,0.511,0.783,0.490,0.974,0.710,0.317,0.554,0.518,��쓌,13.0,��
2024/05/26,13:30,0.512,0.784,0.490,0.973,0.713,0.317,0.552,0.517,��쓌,14.9,��
2024/05/26,13:40,0.513,0.785,0.491,0.973,0.711,0.316,0.554,0.516,��쓌,13.5,��
2024/05/26,13:50,0.512,0.784,0.490,0.973,0.711,0.317,0.553,0.516,��쓌,14.1,��
2024/05/26,14:00,0.513,0.785,0.492,0.973,0.712,0.317,0.553,0.517,��쓌,14.2,��
2024/05/26,14:10,0.511,0.786,0.492,0.975,0.709,0.318,0.554,0.518,��쓌,13.3,��
2024/05/26,14:20,0.512,0.785,0.492,0.972,0.711,0.316,0.552,0.516,��,13.6,��
2024/05/26,14:30,0.512,0.785,0.491,0.973,0.711,0.318,0.552,0.518,��쓌,13.5,��
2024/05/26,14:40,0.512,0.786,0.491,0.973,0.712,0.319,0.554,0.518,��,13.0,��
2024/05/26,14:50,0.513,0.786,0.491,0.972,0.712,0.318,0.553,0.518,��,13.1,��
2024/05/26,15:00,0.511,0.785,0.492,0.975,0.711,0.317,0.553,0.517,��쓌,14.7,��
2024/05/26,15:10,0.514,0.785,0.492,0.974,0.712,0.318,0.555,0.518,��,14.7,��
2024/05/26,15:20,0.511,0.785,0.492,0.973,0.711,0.318,0.554,0.516,��,12.7,��
2024/05/26,15:30,0.512,0.783,0.491,0.973,0.712,0.318,0.554,0.518,��,14.2,��
2024/05/26,15:40,0.512,0.785,0.491,0.974,0.712,0.317,0.555,0.518,��쓌,11.9,��
2024/05/26,15:50,0.513,0.783,0.491,0.972,0.712,0.319,0.554,0.516,��쓌,11.6,��
2024/05/26,16:00,0.512,0.785,0.492,0.974,0.711,0.318,0.555,0.516,��,9.5,��
2024/05/26,16:10,0.514,0.784,0.490,0.972,0.711,0.318,0.554,0.517,��,7.3,��
2024/05/26,16:20,0.512,0.785,0.492,0.972,0.710,0.318,0.553,0.518,��,9.6,��
2024/05/26,16:30,0.514,0.785,0.493,0.973,0.712,0.318,0.554,0.518,��,8.5,��
2024/05/26,16:40,0.514,0.784,0.493,0.972,0.711,0.318,0.555,0.516,��,10.0,��
2024/05/26,16:50,0.513,0.783,0.491,0.971,0.712,0.317,0.554,0.517,��,9.4,��
2024/05/26,17:00,0.512,0.785,0.491,0.973,0.710,0.318,0.554,0.516,��,7.9,��
2024/05/26,17:10,0.512,0.784,0.491,0.977,0.712,0.317,0.554,0.518,��,6.6,��
2024/05/26,17:20,0.513,0.785,0.491,0.975,0.713,0.318,0.555,0.517,��,10.5,��
2024/05/26,17:30,0.510,0.783,0.493,0.976,0.712,0.317,0.555,0.517,��,8.8,��
2024/05/26,17:40,0.513,0.787,0.491,0.974,0.711,0.316,0.554,0.517,��,8.9,��
2024/05/26,17:50,0.512,0.786,0.490,0.973,0.712,0.317,0.554,0.517,��,10.2,��
2024/05/26,18:00,0.512,0.786,0.492,0.974,0.711,0.318,0.552,0.518,��,9.6,��
2024/05/26,18:10,0.513,0.785,0.492,0.974,0.713,0.317,0.554,0.518,��,9.7,��
2024/05/26,18:20,0.510,0.786,0.491,0.976,0.711,0.317,0.554,0.520,��,8.7,��
2024/05/26,18:30,0.511,0.784,0.490,0.976,0.711,0.318,0.552,0.520,��,9.4,��
2024/05/26,18:40,0.512,0.784,0.489,0.976,0.712,0.316,0.553,0.519,��,8.0,��
2024/05/26,18:50,0.511,0.785,0.490,0.975,0.710,0.316,0.554,0.519,��,10.8,��
2024/05/26,19:00,0.512,0.786,0.489,0.977,0.712,0.316,0.553,0.520,��,9.1,��
2024/05/26,19:10,0.512,0.785,0.491,0.976,0.713,0.317,0.554,0.519,��,8.9,��
2024/05/26,19:20,0.511,0.785,0.492,0.978,0.713,0.318,0.555,0.519,��,9.6,��
2024/05/26,19:30,0.512,0.787,0.491,0.976,0.715,0.317,0.555,0.520,��,8.4,��
2024/05/26,19:40,0.511,0.786,0.490,0.976,0.716,0.317,0.557,0.519,��,9.9,��
2024/05/26,19:50,0.512,0.787,0.492,0.975,0.714,0.318,0.557,0.518,��,10.8,��
2024/05/26,20:00,0.512,0.786,0.491,0.976,0.714,0.318,0.556,0.518,��,10.7,��
2024/05/26,20:10,0.513,0.786,0.492,0.975,0.714,0.317,0.557,0.519,��,9.4,��
2024/05/26,20:20,0.512,0.788,0.492,0.977,0.712,0.317,0.555,0.517,��,9.9,��
2024/05/26,20:30,0.511,0.789,0.497,0.977,0.714,0.317,0.557,0.519,��,8.7,��
2024/05/26,20:40,0.512,0.787,0.492,0.978,0.712,0.319,0.555,0.518,��,7.6,��
2024/05/26,20:50,0.513,0.789,0.493,0.976,0.713,0.316,0.556,0.520,��,9.8,��
2024/05/26,21:00,0.513,0.787,0.493,0.977,0.711,0.317,0.555,0.519,��,9.4,��
2024/05/26,21:10,0.512,0.786,0.493,0.977,0.713,0.317,0.555,0.519,��,8.1,��
2024/05/26,21:20,0.512,0.787,0.492,0.976,0.712,0.317,0.555,0.518,��쓌,10.3,��
2024/05/26,21:30,0.512,0.787,0.493,0.977,0.714,0.317,0.555,0.519,��,9.8,��
2024/05/26,21:40,0.511,0.787,0.492,0.978,0.712,0.317,0.557,0.518,��,9.7,��
2024/05/26,21:50,0.512,0.787,0.494,0.975,0.713,0.317,0.555,0.518,��,8.8,��
2024/05/26,22:00,0.513,0.789,0.494,0.976,0.712,0.317,0.555,0.520,��,8.1,��
2024/05/26,22:10,0.513,0.787,0.492,0.978,0.714,0.318,0.556,0.519,��,10.5,��
2024/05/26,22:20,0.514,0.787,0.493,0.977,0.713,0.318,0.554,0.520,��,8.3,��
2024/05/26,22:30,0.513,0.785,0.493,0.977,0.711,0.317,0.556,0.519,��,8.3,��
2024/05/26,22:40,0.511,0.788,0.493,0.977,0.712,0.318,0.554,0.519,��,8.5,��
2024/05/26,22:50,0.512,0.788,0.493,0.978,0.713,0.317,0.556,0.520,��,7.5,��
2024/05/26,23:00,0.513,0.783,0.493,0.977,0.711,0.317,0.554,0.520,��,9.4,��
2024/05/26,23:10,0.512,0.784,0.494,0.978,0.711,0.319,0.555,0.518,��,10.2,��
2024/05/26,23:20,0.515,0.787,0.495,0.977,0.713,0.317,0.555,0.519,��,9.7,��
2024/05/26,23:30,0.515,0.787,0.494,0.975,0.713,0.319,0.557,0.519,��,8.4,��
2024/05/26,23:40,0.514,0.788,0.492,0.976,0.714,0.319,0.555,0.519,��,7.5,��
2024/05/26,23:50,0.513,0.787,0.494,0.976,0.713,0.318,0.557,0.519,��,6.4,��
